[[{"header":{"parameterUnit":"m.s-1","parameterCategory":1,"la1":30.2991,"la2":30.254,"lo1":-89.0895,"lo2":-89.0444,"dy":0.0017,"dx":0.0017,"nx":28,"ny":28,"refTime":"2025-08-02T21:00:00:Z","depth":0,"parameterNumber":2,"parameterNumberName":"U-component_of_WINDS"},"data":[0,0,0,0,0,0,0,0,0,0,0,0,0,0,0,0,0,0,0,0,0,0,0,0,0,0,0,0,0,0,0,0,0,0,0,0,0,0,0,0,0,0,0,0,0,0,0,0,0,0,0,0,0,0,0,0,0,0,2.0061,2.0061,0,2.011,2.0111,2.0112,2.0067,2.0065,2.0063,2.0061,2.0118,2.0121,2.0125,0,0,0,0,0,0,0,0,0,0,0,0,0,1.9933,1.9936,2.0061,2.0061,2.0062,2.011,2.0111,2.0112,2.0067,2.0065,2.0063,2.0061,2.0117,2.0121,2.0125,0,0,0,0,0,0,0,0,0,0,0,0,0,1.9987,1.9937,2.0061,2.0045,2.0045,2.011,2.0111,2.0112,2.0068,2.0065,2.0062,2.006,2.0116,2.0121,2.0126,2.0211,0,0,2.014,2.0142,0,0,0,0,0,0,0,0,1.9984,1.9991,2.0047,2.0047,2.0046,2.0079,2.0087,2.0145,2.0068,2.0059,2.0061,2.0058,2.0108,2.0113,2.0129,2.0213,2.0216,2.0141,2.0144,2.0146,2.0147,0,0,0,0,0,0,0,1.998,1.9989,2.0081,2.0048,2.0047,2.0038,2.0043,2.0098,2.0099,2.006,2.0056,2.0063,2.0107,2.0124,2.013,2.0217,2.0141,2.0145,2.0148,2.015,2.0375,2.0378,0,0,0,0,0,0,1.9977,1.9986,2.0079,2.0082,2.0007,2.0043,2.0048,2.0072,2.0098,2.0099,2.0065,2.006,2.0117,2.0124,2.0132,2.0234,2.0146,2.015,2.0153,2.0372,2.0375,2.0379,0,0,0,0,0,0,1.9974,1.9986,2.0077,2.0033,2.0044,2.0048,2.0075,2.0074,2.0091,2.0102,2.0102,2.0082,2.0116,2.0125,2.0191,2.0235,2.0152,2.0157,2.0368,2.0373,2.0377,2.0438,0,0,0,0,0,0,1.9971,1.9985,2.0016,2.0034,2.0047,2.0134,2.0078,2.0077,2.0099,2.0093,2.0118,2.0119,2.0114,2.0184,2.0196,2.024,2.0161,2.0364,2.037,2.0376,2.0432,2.0444,2.0455,0,0,0,0,0,1.9967,2.0032,2.0018,2.0029,2.0085,2.0136,2.0144,2.0135,2.0102,2.0135,2.0142,2.0119,2.0228,2.0191,2.0204,2.0251,2.0361,2.0368,2.0375,2.0427,2.0442,2.0454,0,0,0,0,0,0,2.0021,2.0034,2.0018,2.0092,2.0113,2.0129,2.0169,2.015,2.0183,2.0177,2.0166,2.0172,2.0242,2.0253,2.0211,2.0335,2.029,2.03,2.0325,2.0339,2.035,2.0347,2.0165,0,0,0,0,0,2.0041,2.008,2.009,2.0154,2.0165,2.0165,2.0188,2.0178,2.0201,2.0211,2.0222,2.0247,2.0287,2.0314,2.0351,2.0434,2.0439,2.0472,2.0483,2.0492,2.0501,2.0547,2.0562,2.0401,2.0401,2.0401,0,0,2.0084,2.0096,2.0122,2.0165,2.0181,2.0223,2.0173,2.022,2.0252,2.0218,2.0281,2.0291,2.0318,2.0393,2.0426,2.0404,2.0547,2.0501,2.0508,2.0512,2.0556,2.0571,2.0585,2.0406,2.0405,2.0404,0,0,2.0184,2.0196,2.0251,2.0267,2.029,2.029,2.0303,2.0322,2.0327,2.0389,2.0365,2.0404,2.0473,2.0493,2.0512,2.062,2.0601,2.0633,2.0692,2.0736,2.0749,2.076,2.08,2.0814,2.0642,2.0642,2.0642,0,2.0234,2.0295,2.0282,2.033,2.0351,2.032,2.0377,2.0394,2.043,2.0446,2.042,2.0506,2.0522,2.0601,2.0628,2.0644,2.066,2.063,2.0748,2.0759,2.0769,2.0807,2.0822,2.0646,2.0645,2.0645,2.0644,0,2.0357,2.0399,2.0441,2.0474,2.0499,2.0552,2.0548,2.0576,2.0565,2.0568,2.0634,2.0651,2.0692,2.071,2.0701,2.079,2.0775,2.0749,2.0703,2.0789,2.0824,2.0838,2.0651,2.065,2.0649,2.0648,0,0,2.0492,2.0517,2.0532,2.0547,2.0571,2.0605,2.0657,2.0695,2.0719,2.0745,2.079,2.0849,2.0825,2.0847,2.084,2.0879,2.0965,2.0848,2.0848,2.087,2.1065,2.1085,2.1102,2.0951,2.0954,2.0956,2.1063,0,2.0593,2.068,2.067,2.0755,2.0795,2.0767,2.0812,2.0833,2.0838,2.0874,2.088,2.0922,2.0887,2.09,2.0938,2.0946,2.1004,2.0938,2.0995,2.0997,2.0989,2.112,2.1141,2.1241,2.1076,2.1079,2.108,0,2.0722,2.075,2.0838,2.0857,2.0873,2.0914,2.0948,2.0983,2.1007,2.1008,2.1032,2.1019,2.1073,2.1026,2.1102,2.1057,2.108,2.1088,2.1092,2.1097,2.1044,2.113,2.1272,2.1288,2.1102,2.11,2.1099,0,2.0812,2.0873,2.0934,2.0947,2.097,2.1,2.1011,2.1032,2.1056,2.1087,2.1103,2.114,2.1161,2.1192,2.119,2.1155,2.1267,2.122,2.1271,2.1271,2.1296,2.1295,2.1445,2.131,2.131,2.1309,2.1309,0,2.0926,2.0982,2.0975,2.1012,2.1074,2.1063,2.1125,2.1133,2.1152,2.1192,2.1171,2.121,2.1204,2.1243,2.1242,2.1306,2.1316,2.1319,2.1318,2.1321,2.1321,2.1337,2.133,2.1313,2.1313,2.1312,2.1311,0,2.1038,2.1035,2.11,2.1116,2.1121,2.1166,2.1181,2.1218,2.122,2.1272,2.1283,2.1288,2.1334,2.1334,2.1386,2.1386,2.1464,2.1455,2.1455,2.1454,2.1506,2.1501,2.1672,2.1694,2.1544,2.1545,2.1546,0,2.1111,2.1153,2.1173,2.1197,2.121,2.125,2.1273,2.1265,2.1291,2.1322,2.1355,2.1398,2.1432,2.1506,2.1516,2.1557,2.1549,2.1606,2.1555,2.1557,2.1551,2.1549,2.1554,2.1616,2.1618,2.1619,2.162,0,2.1241,2.1238,2.1272,2.1306,2.1335,2.1362,2.1387,2.1408,2.1403,2.1434,2.1479,2.1505,2.1558,2.1602,2.1641,2.1655,2.1638,2.1636,2.1651,2.1655,2.1653,2.1656,2.1483,2.1633,2.1631,2.163,2.163,2.1629,2.1336,2.1372,2.1392,2.1431,2.1449,2.1473,2.1508,2.1514,2.1551,2.1592,2.1585,2.1636,2.1661,2.1711,2.1729,2.177,2.1751,2.1771,2.1776,2.1782,2.1788,2.1646,2.1777,2.1777,2.1777,2.1776,2.1776,0,2.1466,2.1477,2.1513,2.1548,2.1579,2.1558,2.1585,2.1613,2.1658,2.1681,2.1714,2.1767,2.181,2.1823,2.1864,2.1895,2.1889,2.1907,2.1905,2.1909,2.1802,2.1786,2.1911,2.1911,2.1911,2.1911,2.1911,2.1911,2.1537,2.1597,2.1596,2.1666,2.1677,2.1725,2.1743,2.1765,2.1784,2.1843,2.1877,2.1885,2.1905,2.1948,2.1987,2.199,2.2007,2.2029,2.2029,2.1929,2.1916,2.1903,2.1888,2.2032,2.2032,2.2131,2.2132,2.2133]},{"header":{"parameterUnit":"m.s-1","parameterCategory":1,"la1":30.2991,"la2":30.254,"lo1":-89.0895,"lo2":-89.0444,"dy":0.0017,"dx":0.0017,"nx":28,"ny":28,"refTime":"2025-08-02T21:00:00:Z","depth":0,"parameterNumber":3,"parameterNumberName":"V-component_of_WINDS"},"data":[0,0,0,0,0,0,0,0,0,0,0,0,0,0,0,0,0,0,0,0,0,0,0,0,0,0,0,0,0,0,0,0,0,0,0,0,0,0,0,0,0,0,0,0,0,0,0,0,0,0,0,0,0,0,0,0,0,0,-3.7543,-3.7544,0,-3.7604,-3.7605,-3.7606,-3.7569,-3.7567,-3.7566,-3.7564,-3.7623,-3.7626,-3.763,0,0,0,0,0,0,0,0,0,0,0,0,0,-3.7388,-3.7391,-3.7543,-3.7544,-3.7544,-3.7604,-3.7605,-3.7606,-3.7569,-3.7567,-3.7565,-3.7563,-3.7622,-3.7626,-3.763,0,0,0,0,0,0,0,0,0,0,0,0,0,-3.7453,-3.7392,-3.7543,-3.7534,-3.7533,-3.7604,-3.7605,-3.7606,-3.757,-3.7567,-3.7565,-3.7562,-3.7621,-3.7626,-3.763,-3.7712,0,0,-3.7645,-3.7647,0,0,0,0,0,0,0,0,-3.7449,-3.7459,-3.7534,-3.7534,-3.7534,-3.7576,-3.7572,-3.7641,-3.7571,-3.7556,-3.7564,-3.7561,-3.761,-3.7615,-3.7632,-3.7715,-3.7718,-3.7645,-3.7648,-3.765,-3.7652,0,0,0,0,0,0,0,-3.7445,-3.7456,-3.7567,-3.7535,-3.7535,-3.7524,-3.7531,-3.7585,-3.7596,-3.7557,-3.7554,-3.7562,-3.7609,-3.7628,-3.7633,-3.7719,-3.7645,-3.765,-3.7653,-3.7654,-3.7867,-3.7869,0,0,0,0,0,0,-3.7442,-3.7452,-3.7565,-3.7569,-3.7485,-3.7529,-3.7536,-3.7565,-3.7596,-3.7598,-3.7565,-3.756,-3.7621,-3.7628,-3.7635,-3.773,-3.765,-3.7655,-3.7658,-3.7864,-3.7867,-3.787,0,0,0,0,0,0,-3.7439,-3.7452,-3.7563,-3.751,-3.7523,-3.7535,-3.7568,-3.7568,-3.7587,-3.7602,-3.7603,-3.7582,-3.7619,-3.7629,-3.7693,-3.7731,-3.7657,-3.7661,-3.7861,-3.7865,-3.7869,-3.7922,0,0,0,0,0,0,-3.7434,-3.7451,-3.7484,-3.7511,-3.7526,-3.7621,-3.757,-3.7571,-3.7595,-3.7591,-3.7618,-3.762,-3.7618,-3.7686,-3.7697,-3.7737,-3.7665,-3.7857,-3.7863,-3.7867,-3.7916,-3.7927,-3.7936,0,0,0,0,0,-3.7429,-3.7497,-3.7486,-3.75,-3.7568,-3.7623,-3.7632,-3.7628,-3.7599,-3.763,-3.7639,-3.7619,-3.7726,-3.7693,-3.7705,-3.7747,-3.7855,-3.7861,-3.7867,-3.7912,-3.7925,-3.7936,0,0,0,0,0,0,-3.7474,-3.75,-3.7489,-3.7568,-3.7594,-3.7617,-3.7657,-3.7643,-3.7677,-3.7671,-3.7664,-3.767,-3.7736,-3.7748,-3.7711,-3.7825,-3.7785,-3.7794,-3.7815,-3.7827,-3.7837,-3.7832,-3.7669,0,0,0,0,0,-3.7494,-3.7538,-3.7558,-3.7626,-3.7639,-3.7646,-3.767,-3.7665,-3.7691,-3.7701,-3.7715,-3.774,-3.7778,-3.7804,-3.7841,-3.7919,-3.7922,-3.7953,-3.7963,-3.7971,-3.7978,-3.8016,-3.8029,-3.7891,-3.7891,-3.789,0,0,-3.7534,-3.7553,-3.7582,-3.7635,-3.7654,-3.7698,-3.7655,-3.7704,-3.7736,-3.7708,-3.7769,-3.778,-3.7807,-3.7877,-3.7909,-3.7889,-3.8017,-3.7979,-3.7985,-3.7988,-3.8023,-3.8036,-3.8048,-3.7895,-3.7894,-3.7893,0,0,-3.7628,-3.7649,-3.7706,-3.7726,-3.7755,-3.7759,-3.7773,-3.7798,-3.7804,-3.7865,-3.7844,-3.7881,-3.7949,-3.7967,-3.7986,-3.8084,-3.8065,-3.8096,-3.8147,-3.8184,-3.8194,-3.8204,-3.8235,-3.8247,-3.8103,-3.8104,-3.8104,0,-3.7674,-3.774,-3.7737,-3.7786,-3.7808,-3.7786,-3.7841,-3.786,-3.79,-3.7915,-3.7893,-3.7975,-3.7992,-3.8064,-3.8087,-3.8105,-3.8117,-3.8092,-3.8193,-3.8203,-3.8212,-3.8241,-3.8254,-3.8107,-3.8107,-3.8106,-3.8106,0,-3.7793,-3.7839,-3.7881,-3.7919,-3.7946,-3.7999,-3.8001,-3.8028,-3.802,-3.8025,-3.8085,-3.8105,-3.8143,-3.816,-3.8153,-3.823,-3.8217,-3.8195,-3.8153,-3.8228,-3.8256,-3.8268,-3.8112,-3.811,-3.8109,-3.8109,0,0,-3.7918,-3.7952,-3.7967,-3.7983,-3.8012,-3.8047,-3.8097,-3.8134,-3.8156,-3.8184,-3.8223,-3.828,-3.8258,-3.8279,-3.8274,-3.8307,-3.8378,-3.8279,-3.828,-3.8294,-3.846,-3.8474,-3.8488,-3.8367,-3.8369,-3.8371,-3.8456,0,-3.8012,-3.8099,-3.8096,-3.8177,-3.8217,-3.8195,-3.8237,-3.8259,-3.8265,-3.8298,-3.8304,-3.8342,-3.8313,-3.8324,-3.8356,-3.8363,-3.8411,-3.8357,-3.84,-3.8402,-3.8391,-3.8503,-3.852,-3.8599,-3.8468,-3.847,-3.8471,0,-3.8133,-3.8164,-3.8249,-3.8269,-3.8285,-3.8324,-3.8356,-3.8389,-3.8412,-3.8413,-3.8435,-3.8424,-3.8471,-3.8431,-3.8494,-3.8457,-3.8475,-3.848,-3.8483,-3.8485,-3.8439,-3.8505,-3.8625,-3.8636,-3.8489,-3.8487,-3.8486,0,-3.8211,-3.8274,-3.8332,-3.8346,-3.8372,-3.8399,-3.8411,-3.8431,-3.8453,-3.8481,-3.8494,-3.8527,-3.8544,-3.8569,-3.8566,-3.8537,-3.8629,-3.8589,-3.8629,-3.8628,-3.8647,-3.8645,-3.8769,-3.8664,-3.8663,-3.8663,-3.8663,0,-3.8315,-3.8366,-3.8367,-3.8402,-3.8458,-3.8452,-3.8507,-3.8516,-3.8534,-3.8568,-3.8552,-3.8584,-3.8579,-3.8611,-3.8609,-3.8659,-3.8668,-3.8669,-3.8667,-3.8669,-3.8668,-3.8678,-3.8671,-3.8666,-3.8666,-3.8665,-3.8664,0,-3.8411,-3.8414,-3.8474,-3.8493,-3.8499,-3.8539,-3.8554,-3.8586,-3.859,-3.8633,-3.8643,-3.8648,-3.8685,-3.8684,-3.8726,-3.8724,-3.8785,-3.8779,-3.8777,-3.8775,-3.8813,-3.8808,-3.8945,-3.8961,-3.8848,-3.8849,-3.885,0,-3.8475,-3.8514,-3.8537,-3.8559,-3.8572,-3.8608,-3.8629,-3.8625,-3.8647,-3.8674,-3.8702,-3.8737,-3.8764,-3.8823,-3.8829,-3.886,-3.8852,-3.8898,-3.8857,-3.8856,-3.8848,-3.8845,-3.8847,-3.8905,-3.8906,-3.8907,-3.8908,0,-3.8588,-3.8586,-3.8619,-3.865,-3.8676,-3.8701,-3.8723,-3.8742,-3.8739,-3.8765,-3.8802,-3.8823,-3.8865,-3.8898,-3.8927,-3.8937,-3.8921,-3.8921,-3.8931,-3.8932,-3.8928,-3.8927,-3.8796,-3.8918,-3.8917,-3.8916,-3.8916,-3.8915,-3.8668,-3.87,-3.8719,-3.8754,-3.8771,-3.8791,-3.8821,-3.8828,-3.8859,-3.8892,-3.8887,-3.8927,-3.8945,-3.8983,-3.8995,-3.9025,-3.9009,-3.9025,-3.9028,-3.9031,-3.9034,-3.8926,-3.9031,-3.9031,-3.9031,-3.903,-3.903,0,-3.8776,-3.8787,-3.882,-3.8851,-3.8878,-3.8861,-3.8885,-3.8907,-3.8943,-3.8962,-3.8988,-3.9029,-3.906,-3.9069,-3.9099,-3.9121,-3.9114,-3.9128,-3.9125,-3.9127,-3.9048,-3.9035,-3.9133,-3.9133,-3.9133,-3.9133,-3.9133,-3.9133,-3.8836,-3.8888,-3.8888,-3.8946,-3.8957,-3.8996,-3.901,-3.9028,-3.9042,-3.9088,-3.9114,-3.912,-3.9133,-3.9163,-3.9191,-3.9192,-3.9202,-3.9219,-3.9217,-3.9143,-3.9133,-3.9123,-3.911,-3.9222,-3.9222,-3.9293,-3.9293,-3.9294]}]]